{"data":{"norad_id":63868,"epoch":"2026-05-25T03:52:58.209312Z","epoch_age_seconds":65045,"freshness":"FRESH","line1":"1 63868U 25094E   26145.16178483 -.00002209  00000+0 -17742-3 0  9995","line2":"2 63868  70.0024  41.8242 0002411 260.3913  99.6973 14.98329751 58655","mean_motion":14.98329751,"eccentricity":0.0002411,"inclination_deg":70.0024,"raan_deg":41.8242,"arg_perigee_deg":260.3913,"mean_anomaly_deg":99.6973,"bstar":-0.00017742,"rev_number":5865,"period_min":96.107015097239,"perigee_km":570.38096926483,"apogee_km":573.73235264814,"semimajor_km":6950.1936609565,"source":"CELESTRAK","updated_at":"2026-05-25T13:38:20.169761Z"}}